Regional Weather Roundup
Issued by NWS Little Rock, AR

Home | Current Version | Previous Version | Text Only | Print | Product List | Glossary Off
Versions: 1 2 3 4 5 6 7 8 9 10 11 12 13 14 15 16 17 18 19 20 21 22 23 24 25 26 27 28 29 30 31

000
ASUS44 KLZK 052305
RWRLZK

WEATHER ROUNDUP FOR ARKANSAS
NATIONAL WEATHER SERVICE LITTLE ROCK AR
500 PM CST MON DEC 05 2016

NOTE: "FAIR" INDICATES FEW OR NO CLOUDS BELOW 12,000 FEET WITH NO
SIGNIFICANT WEATHER AND/OR OBSTRUCTIONS TO VISIBILITY.

ARZ001-003-010-029-060000-
NORTHWEST ARKANSAS

CITY           SKY/WX    TMP DP  RH WIND       PRES   REMARKS
FAYETTEVILLE   PTCLDY    47  37  68 S7        29.74R
FORT SMITH     CLOUDY    48  40  73 E10       29.77S
HARRISON       CLOUDY    42  38  85 E10       29.77F
BENTONVILLE    CLEAR     48  32  53 SE3       29.74S
ROGERS         PTCLDY    47  38  71 E6        29.73F
SILOAM SPGS    CLEAR     46  36  66 SE3       29.72F
HIGHFILL       PTCLDY    48  36  63 E5        29.72F
SPRINGDALE     MOCLDY    50  36  57 SE3       29.75F
$$

ARZ004-005-016-060000-
NORTH CENTRAL ARKANSAS

CITY           SKY/WX    TMP DP  RH WIND       PRES   REMARKS
BATESVILLE     CLOUDY    43  37  81 E6        29.84F
FLIPPIN        CLOUDY    43  34  70 E7        29.77F
MTN HOME       CLOUDY    42  37  82 SE9       29.78F
$$

ARZ040-041-060000-
WEST CENTRAL ARKANSAS

CITY           SKY/WX    TMP DP  RH WIND       PRES   REMARKS
MENA           CLOUDY    50  46  87 E6        29.76S
MOUNT IDA      CLOUDY    48  41  76 CALM      29.75R
$$

ARZ009-017-025-026-028-060000-
NORTHEAST ARKANSAS

CITY           SKY/WX    TMP DP  RH WIND       PRES   REMARKS
CORNING        CLOUDY    43  39  87 E12       29.86F
JONESBORO      CLOUDY    44  40  85 NE9       29.84F
NEWPORT        CLOUDY    43  41  93 NE10      29.83F
WALNUT RIDGE   CLOUDY    43  37  81 NE8       29.85F
BLYTHEVILLE    CLOUDY    45  40  82 NE7       29.85F
$$

ARZ022-023-033-042-044-060000-
CENTRAL ARKANSAS

CITY           SKY/WX    TMP DP  RH WIND       PRES   REMARKS
LITTLE ROCK    DRIZZLE   44  43  96 NE10      29.80F FOG
N LITTLE ROCK    N/A     44  41  92 E7        29.81F
JACKSONVILLE   CLOUDY    45  42  91 NE7       29.79F
SEARCY         CLOUDY    44  42  93 NE12      29.83F
HOT SPRINGS    CLOUDY    46  42  86 NE9       29.78S
RUSSELLVILLE   CLOUDY    47  40  76 SE5       29.78S
CLINTON        CLOUDY    46  41  81 E7        29.80S
$$

ARZ036-060000-
EAST ARKANSAS

CITY           SKY/WX    TMP DP  RH WIND       PRES   REMARKS
WEST MEMPHIS   CLOUDY    47  43  86 NE7       29.80S
$$

ARZ050-053-066-070-073-060000-
SOUTHWEST ARKANSAS

CITY           SKY/WX    TMP DP  RH WIND       PRES   REMARKS
ARKADELPHIA    CLOUDY    46  43  87 NE8       29.78F
CAMDEN         FOG       46  45  93 NE5       29.76F VSB 3/4
TEXARKANA      LGT RAIN  46  46 100 E3        29.76F FOG
EL DORADO      CLOUDY    47  46  97 NE9       29.73F
DE QUEEN       CLOUDY    49  44  83 NE6       29.73F
$$

ARZ056-057-069-060000-
SOUTHEAST ARKANSAS

CITY           SKY/WX    TMP DP  RH WIND       PRES   REMARKS
PINE BLUFF     CLOUDY    45  44  97 N7        29.78F
STUTTGART      CLOUDY    45  39  81 NE12      29.78F
MONTICELLO     CLOUDY    47  46  97 NE8       29.75F FOG

$$






USA.gov is the U.S. government's official web portal to all federal, state and local government web resources and services.